User: anonymous
Location: Unspecified
(0.0000°N, 0.0000°E)
Time: 19:36:00
(UTC+00:00)
Language:

UHF F/O F4 - Orbit

View from above orbital plane
View from above orbital plane
View from above satellite
View from above satellite

Ground track
Ground track

The orbit data is extracted from the following two-line orbital elements,

1 23467U 95003A   14242.43437486 0.00000000  00000-0  00000-0 0    04
2 23467   8.4893  35.3982 0008189 273.0737  86.8389  1.00270000    03
Epoch (UTC): 30 August 2014 10:25:29
Eccentricity: 0.0008189
inclination: 8.4893°
perigee height: 35752 km
apogee height: 35821 km
right ascension of ascending node: 35.3982°
argument of perigee: 273.0737°
revolutions per day: 1.00270000
mean anomaly at epoch: 86.8389°
orbit number at epoch: 0

The dashed part of the orbit path shows where the satellite is in the earth's shadow,  

DLR